Regional Weather Roundup
Issued by NWS

Home | Current Version | Previous Version | Text Only | Print | Product List | Glossary Off
Versions: 1 2 3 4 5 6 7 8 9 10 11 12 13 14 15 16 17 18 19 20 21 22 23 24 25 26 27 28 29 30 31 32 33 34 35 36 37 38 39 40 41 42 43 44 45 46 47 48 49 50

000
ASUS43 KOAX 280002
RWRNE

WEATHER ROUNDUP FOR NEBRASKA
NATIONAL WEATHER SERVICE OMAHA NE
600 PM CST TUE JAN 27 2015

NOTES: SATELLITE DATA IS BEING USED TO AUGMENT CLOUD COVER ABOVE
       12000 FEET.
       "FAIR" INDICATES FEW OR NO CLOUDS BELOW 12,000 FEET WITH NO
       SIGNIFICANT WEATHER AND/OR OBSTRUCTIONS TO VISIBILITY.

  * THESE STATIONS DO NOT REPORT WEATHER SUCH AS RAIN...SNOW OR FOG.

NEZ001>004-019>022-054>056-280100-
NEBRASKA PANHANDLE

CITY           SKY/WX    TMP DP  RH WIND       PRES   REMARKS
SCOTTSBLUFF      N/A    N/A N/A N/A MISG      29.95F
ALLIANCE       PTCLDY    54  28  36 S6        29.94F
6HR MIN TEMP:  54; 6HR MAX TEMP:  71;

CHADRON        PTCLDY    54  34  46 E6        29.91F
6HR MIN TEMP:  54; 6HR MAX TEMP:  69;

KIMBALL        PTCLDY    57  30  35 SE5       29.98F
SIDNEY         MOCLDY    53  33  46 S5        29.98F
6HR MIN TEMP:  53; 6HR MAX TEMP:  73;

$$

NEZ057>060-069>072-079>082-280100-
SOUTHWEST NEBRASKA

CITY           SKY/WX    TMP DP  RH WIND       PRES   REMARKS
NORTH PLATTE   CLEAR     55  28  35 CALM      29.92F
6HR MIN TEMP:  55; 6HR MAX TEMP:  74;

IMPERIAL       PTCLDY    60  26  27 NE3       29.95F
6HR MIN TEMP:  59; 6HR MAX TEMP:  77;

LEXINGTON      CLEAR     60  32  34 E3        29.92S
MC COOK        CLEAR     69  29  22 CALM      29.93F
6HR MIN TEMP:  57; 6HR MAX TEMP:  75;

OGALLALA       PTCLDY    59  31  34 N3        29.95S
$$

NEZ005>010-023>029-035>040-094-280100-
NORTH CENTRAL NEBRASKA

CITY           SKY/WX    TMP DP  RH WIND       PRES   REMARKS
VALENTINE      CLEAR     57  33  40 SW7       29.88S
6HR MIN TEMP:  55; 6HR MAX TEMP:  72;

AINSWORTH      CLEAR     60  33  35 CALM      29.89S
BROKEN BOW     CLEAR     59  34  39 SE7       29.91S
6HR MIN TEMP:  57; 6HR MAX TEMP:  71;

O`NEILL        CLEAR     53  37  54 SE8       29.91F
ORD            CLEAR     53  33  46 E3        29.91F
6HR MIN TEMP:  48; 6HR MAX TEMP:  63;

THEDFORD       CLEAR     67  32  26 CALM      29.92S
$$

NEZ041-046>049-061>064-073>077-083>087-280100-
SOUTH CENTRAL NEBRASKA

CITY           SKY/WX    TMP DP  RH WIND       PRES   REMARKS
GRAND ISLAND   CLEAR     53  34  48 SE9       29.95S
AURORA         CLEAR     51  32  49 SE9       29.95F
HASTINGS       CLEAR     57  31  37 SE10      29.94S
6HR MIN TEMP:  55; 6HR MAX TEMP:  66;

HEBRON         CLEAR     56  31  38 SE5       29.96F
HOLDREGE       CLEAR     63  30  29 CALM      29.93S
KEARNEY *      CLEAR     55  30  38 S5        29.93S
YORK           CLEAR     52  32  46 SE9       29.97S
$$

NEZ011>018-030>034-042>045-280100-
NORTHEAST NEBRASKA

CITY           SKY/WX    TMP DP  RH WIND       PRES   REMARKS
NORFOLK        CLEAR     46  34  62 SE8       29.97R
6HR MIN TEMP:  46; 6HR MAX TEMP:  56;

ALBION         CLEAR     46  33  60 SE7       29.95F
BLAIR          FAIR      46  31  55 SE8       30.03R
COLUMBUS *     CLEAR     50  30  46 E7        30.00S
FREMONT        CLEAR     48  32  53 SE9       30.02S
TEKAMAH        CLEAR     43  32  65 SE9       30.03S
6HR MIN TEMP:  43; 6HR MAX TEMP:  53;

$$

NEZ050>053-065>068-078-088>093-280100-
SOUTHEAST NEBRASKA

CITY           SKY/WX    TMP DP  RH WIND       PRES   REMARKS
LINCOLN        CLEAR     51  31  46 SE9       30.02R
6HR MIN TEMP:  50; 6HR MAX TEMP:  59;

OMAHA EPPLEY   PTCLDY    47  31  53 SE10      30.04S
6HR MIN TEMP:  45; 6HR MAX TEMP:  54;

BEATRICE       CLEAR     55  33  42 SE7       30.00S
FALLS CITY     CLEAR     47  30  51 SE7       30.05R
6HR MIN TEMP:  47; 6HR MAX TEMP:  57;

NEBRASKA CITY  CLEAR     48  26  41 SE8       30.04S
PLATTSMOUTH    CLEAR     48  28  46 SE8       30.04R
$$

NEZ044-045-051>053-067-280100-
OMAHA AREA

CITY           SKY/WX    TMP DP  RH WIND       PRES   REMARKS
EPPLEY FIELD   PTCLDY    47  31  53 SE10      30.04S
6HR MIN TEMP:  45; 6HR MAX TEMP:  54;

BLAIR          CLEAR     46  31  55 SE8       30.03R
FREMONT        CLEAR     48  32  53 SE9       30.02S
MILLARD        CLEAR     49  32  52 SE7       30.03S
OFFUTT AFB     CLEAR     43  30  59 E9        30.04R
PLATTSMOUTH    CLEAR     48  28  46 SE8       30.04R
WAHOO          FAIR      45  29  53 SE9       30.01S
$$



USA.gov is the U.S. government's official web portal to all federal, state and local government web resources and services.